Jonesboro, AR

3:12 AM CST on February 28, 2017 (GMT -0600)
Jonesboro Municipal

Weather History for KJBR - December, 2012

Change the Weather History Date:

Friday, December 7, 2012

  Actual Average Record
Temperature  
Mean Temperature 61 °F 41 °F  
Max Temperature 65 °F 50 °F 76 °F (1924)
Min Temperature 56 °F 32 °F 3 °F (1917)
Degree Days  
Heating Degree Days 4 24  
Month to date heating degree days 36 161  
Since 1 July heating degree days 719 811  
Cooling Degree Days 0 0  
Month to date cooling degree days 2 0  
Year to date cooling degree days 2345 1827  
Growing Degree Days 10 (Base 50)    
Moisture  
Dew Point 55 °F    
Average Humidity 84    
Maximum Humidity 100    
Minimum Humidity 67    
Precipitation  
Precipitation T in 0.19 in 2.63 in (1944)
Month to date precipitation 0.70 1.27  
Year to date precipitation 30.58 44.60  
Snow  
Snow 0.00 in - - ()
Month to date snowfall 0.0  
Snow Depth 0.00 in    
Sea Level Pressure  
Sea Level Pressure 29.89 in    
Wind  
Wind Speed 7 mph (SSW)    
Max Wind Speed 18 mph    
Max Gust Speed 22 mph    
Visibility 5 miles    
Events Fog , Rain    
T = Trace of Precipitation, MM = Missing Value Source: NWS Daily Summary

Daily Weather History Graph

Daily Weather History Graph

Search for Another Location

Airport or City:

Trip Planner

Search our weather history database for the weather conditions in past years. The results will help you decide how hot, cold, wet, or windy it might be!

Date:

Astronomy

Dec. 07, 2012 Rise Set
Actual Time 6:59 AM CST 4:48 PM CST
Civil Twilight 6:31 AM CST 5:17 PM CST
Nautical Twilight 5:59 AM CST 5:48 PM CST
Astronomical Twilight 5:28 AM CST 6:19 PM CST
Moon 12:30 AM CST (12/7) 12:36 PM CST (12/7)
Length of Visible Light 10h 45m
Length of Day
9h 48m
Last Quarter, 38% of the Moon is Illuminated
Dec 7
Last Quarter
Dec 13
New
Dec 19
First Quarter
Dec 28
Full
Jan 4
Last Quarter

Hourly Weather History & Observations

Time (CST) Temp. Dew Point Humidity Pressure Visibility Wind Dir Wind Speed Gust Speed Precip Events Conditions
12:33 AM 57.2 °F 55.4 °F 94% 29.92 in 2.0 mi Calm Calm - N/A   Overcast
12:42 AM 57.2 °F 55.4 °F 94% 29.91 in 1.0 mi SE 3.5 mph - N/A   Overcast
12:53 AM 57.0 °F 55.0 °F 93% 29.91 in 1.2 mi SE 3.5 mph - N/A   Overcast
1:05 AM 55.4 °F 55.4 °F 100% 29.91 in 0.8 mi Calm Calm - N/A   Mist
1:19 AM 57.2 °F 55.4 °F 94% 29.92 in 1.0 mi Calm Calm - N/A   Mist
1:26 AM 57.2 °F 55.4 °F 94% 29.91 in 0.5 mi South 4.6 mph - N/A Fog Fog
1:41 AM 57.2 °F 55.4 °F 94% 29.91 in 0.2 mi SSE 3.5 mph - N/A Fog Fog
1:53 AM 57.0 °F 55.0 °F 93% 29.91 in 0.2 mi SSE 4.6 mph - N/A Fog Fog
2:24 AM 57.2 °F 55.4 °F 94% 29.91 in 0.2 mi South 4.6 mph - N/A Fog Fog
2:53 AM 55.9 °F 55.0 °F 97% 29.91 in 0.2 mi South 5.8 mph - N/A Fog Fog
3:08 AM 55.4 °F 55.4 °F 100% 29.90 in 0.2 mi South 3.5 mph - N/A Fog Fog
3:53 AM 55.9 °F 55.0 °F 97% 29.90 in 0.2 mi South 3.5 mph - N/A Fog Fog
4:26 AM 55.4 °F 55.4 °F 100% 29.90 in 0.5 mi Calm Calm - N/A Fog Fog
4:34 AM 55.4 °F 55.4 °F 100% 29.90 in 0.8 mi Calm Calm - N/A   Mist
4:41 AM 55.4 °F 55.4 °F 100% 29.90 in 1.2 mi Calm Calm - N/A   Overcast
4:53 AM 57.0 °F 55.0 °F 93% 29.90 in 1.5 mi WSW 3.5 mph - N/A   Overcast
5:04 AM 57.2 °F 55.4 °F 94% 29.90 in 2.5 mi SW 4.6 mph - N/A   Overcast
5:53 AM 59.0 °F 57.0 °F 93% 29.91 in 3.0 mi SW 5.8 mph - N/A   Overcast
6:37 AM 57.2 °F 57.2 °F 100% 29.91 in 5.0 mi SSW 8.1 mph - N/A   Overcast
6:53 AM 57.9 °F 55.9 °F 93% 29.91 in 5.0 mi SW 5.8 mph - N/A   Overcast
7:19 AM 57.2 °F 55.4 °F 94% 29.91 in 3.0 mi SW 6.9 mph - N/A   Overcast
7:53 AM 57.9 °F 55.9 °F 93% 29.92 in 3.0 mi SW 6.9 mph - N/A   Overcast
8:53 AM 59.0 °F 57.0 °F 93% 29.91 in 4.0 mi SSW 11.5 mph - N/A   Overcast
9:06 AM 60.8 °F 55.4 °F 82% 29.92 in 7.0 mi SSW 8.1 mph - N/A   Overcast
9:34 AM 60.8 °F 55.4 °F 82% 29.93 in 9.0 mi WSW 8.1 mph - N/A   Scattered Clouds
9:53 AM 60.1 °F 55.0 °F 83% 29.92 in 10.0 mi SW 10.4 mph - N/A   Scattered Clouds
10:53 AM 63.0 °F 54.0 °F 72% 29.91 in 10.0 mi SW 8.1 mph - N/A   Partly Cloudy
11:38 AM 64.4 °F 53.6 °F 68% 29.89 in 10.0 mi SSW 12.7 mph - N/A   Mostly Cloudy
11:53 AM 63.0 °F 54.0 °F 72% 29.88 in 10.0 mi SW 12.7 mph - N/A   Overcast
12:53 PM 64.0 °F 53.1 °F 67% 29.86 in 10.0 mi SSW 13.8 mph - N/A   Overcast
1:53 PM 64.0 °F 53.1 °F 67% 29.83 in 10.0 mi SW 11.5 mph - N/A   Scattered Clouds
2:53 PM 64.0 °F 54.0 °F 70% 29.83 in 10.0 mi SW 11.5 mph - N/A   Partly Cloudy
3:53 PM 63.0 °F 53.1 °F 70% 29.83 in 10.0 mi SW 10.4 mph - N/A   Clear
4:53 PM 63.0 °F 53.1 °F 70% 29.84 in 10.0 mi WSW 5.8 mph - N/A   Overcast
5:53 PM 62.1 °F 54.0 °F 75% 29.86 in 10.0 mi West 6.9 mph - N/A   Overcast
6:53 PM 60.8 °F 53.6 °F 77% 29.87 in 10.0 mi WSW 5.8 mph - N/A   Overcast
7:53 PM 61.0 °F 54.0 °F 78% 29.87 in 10.0 mi SSW 6.9 mph - N/A   Overcast
8:53 PM 60.1 °F 54.0 °F 80% 29.87 in 10.0 mi SSW 8.1 mph - N/A   Overcast
9:48 PM 60.8 °F 53.6 °F 77% 29.87 in 10.0 mi SSW 8.1 mph - N/A   Overcast
9:53 PM 60.1 °F 54.0 °F 80% 29.87 in 10.0 mi SSW 6.9 mph - N/A   Overcast
10:11 PM 60.8 °F 55.4 °F 82% 29.87 in 6.0 mi SW 5.8 mph - 0.00 in Rain Light Rain
10:53 PM 60.1 °F 55.9 °F 86% 29.87 in 7.0 mi WSW 4.6 mph - 0.00 in   Overcast
11:09 PM 60.8 °F 55.4 °F 82% 29.88 in 8.0 mi West 4.6 mph - N/A   Overcast
11:26 PM 60.8 °F 55.4 °F 82% 29.88 in 7.0 mi West 4.6 mph - N/A   Overcast
11:53 PM 60.1 °F 55.9 °F 86% 29.87 in 7.0 mi West 4.6 mph - N/A   Overcast